Regional Weather Roundup
Issued by NWS Newport/Morehead, NC

Current Version | Previous Version | Text Only | Print | Product List | Glossary On
Versions: 1 2 3 4 5 6 7 8 9 10 11 12 13 14 15 16 17 18 19 20 21 22 23 24 25 26 27 28 29 30 31 32 33 34 35 36 37 38 39 40 41 42 43 44 45 46 47 48 49 50
000 ASUS42 KMHX 290425 RWRMHX WEATHER ROUNDUP FOR EASTERN NORTH CAROLINA NATIONAL WEATHER SERVICE NEWPORT/MOREHEAD CITY NC 1200 AM EDT WED JUL 29 2015 NOTE: "FAIR" INDICATES FEW OR NO CLOUDS BELOW 12,000 FEET WITH NO SIGNIFICANT WEATHER AND/OR OBSTRUCTIONS TO VISIBILITY NCZ015>017-031-032-045>047-102-103-290500- NORTH COAST CITY SKY/WX TMP DP RH WIND PRES REMARKS EDENTON N/A 77 70 79 SE3 30.02S ELIZABETH CITY PTCLDY 76 71 85 CALM 30.02S KITTY HAWK MOCLDY 76 69 79 CALM 30.01S MANTEO MOCLDY 77 70 81 SE3 30.03R $$ NCZ045>047-081-094-103-104-290500- CENTRAL COAST CITY SKY/WX TMP DP RH WIND PRES REMARKS FRISCO PTCLDY 76 68 76 E5 30.01F SWANQUARTER N/A 75 N/A N/A E2 29.97S $$ NCZ095-097-098-100-101-290500- SOUTHERN COAST CITY SKY/WX TMP DP RH WIND PRES REMARKS BEAUFORT PTCLDY 79 72 79 E5 30.00S CEDAR ISLAND N/A 81 N/A N/A E9G16 30.03F JACKSONVILLE MOCLDY 79 71 76 E7 30.00R PINEY ISLAND PTCLDY N/A N/A N/A E7 30.01R WILMINGTON MOCLDY 75 72 90 CALM 29.99S $$ NCZ011>013-027>030-043-044-078>080-089-090>093-098-290500- COASTAL PLAIN CITY SKY/WX TMP DP RH WIND PRES REMARKS AHOSKIE PTCLDY 73 67 84 CALM 30.01S CLINTON MOCLDY 77 71 82 CALM 30.01R ELIZABETHTOWN CLEAR 75 70 84 CALM 30.00S GOLDSBORO NOT AVBL GREENVILLE PTCLDY 79 72 78 SE5 30.02F HAVELOCK PTCLDY 75 70 84 E3 30.02R KENANSVILLE PTCLDY 73 70 89 CALM 30.02R KINSTON PTCLDY 78 70 75 SE5 30.01S NEW BERN PTCLDY 74 70 87 CALM 30.02R RICHLANDS PTCLDY 73 66 78 NE5 30.01R ROCKY MOUNT PTCLDY 77 72 84 CALM 30.01R WASHINGTON PTCLDY 74 71 88 SE3 30.01S WHITEVILLE CLEAR 75 70 84 CALM 29.99S $$ AMZ130-135-150-152-154-156-158-170-250-252-270-ANZ085-086-088-633-658-670-290500- MARINE OBSERVATIONS STATION/POSITION TIME TEMP WIND PRES WAVE SWELL AIR SEA DIR/SP/G HT/PER HT/PER (UTC) (F) (DEG/KT/KT) (MB) (FT/S) (FT/S) CHESAPEAKE LIGHT 0400 80 190/ 14/ 15 1016.7 64 E VA BEACH 0350 80 81 170/ 6/ 8 1016.4 3/ 6 3/ 6 DUCK 0400 78 70 140/ 7/ 7 1015.7 2 E DUCK 0311 80 N/A 2/11 2/11 OREGON INLET 0400 79 83 100/ 4/ 6 1016.3 13E OREGON INLT 0400 81 N/A 2/10 2/11 HATTERAS CG 0400 81 83 100/ 6/ 9 1016.0 DIAMOND BUOY NOT AVBL CAPE LOOKOUT 0400 81 80/ 11/ 12 1015.6 BEAUFORT LAB 0400 80 81 100/ 4/ 5 1015.2 30 SE NEW RVR IN NOT AVBL 27 SE WRIGHTSVLE 0400 78 81 90/ 10/ 14 N/A 5 SE WRIGHTSVLE NOT AVBL 225 S CAPE HAT 0350 79 82 230/ 21/ 27 1014.7 6/ 7 41 SE CHARLESTON 0350 83 84 80/ 8/ 10 1014.3 3/ 6 2/ 6 $$

USA.gov is the U.S. government's official web portal to all federal, state and local government web resources and services.